This demonstration page uses our WeatherBlox Daily Observations layout. Learn more.

39.92423, -83.80882

Hourly Observations for September 29, 2020

Temp ( °F °C ) Dew Point ( °F °C ) Humidity (%) Winds ( mph kmh ) Pressure ( in mb ) Visibility ( mi km ) Precip ( " mm )
12:56 am 00:56 Mostly Clear 52 11.1 52 11.1 100 100 SW 6 9 29.9 1012 10 16.0934 0.01 0.254
1:56 am 01:56 Clear 52 11.1 52 11.1 100 100 SW 6 9 29.89 1012 9 14.48406 0.01 0.254
2:56 am 02:56 Clear with Mist and Fog 51 10.6 51 10.6 100 100 SW 5 7 29.89 1012 6 9.65604 0.01 0.254
3:56 am 03:56 Clear 50 10 50 10 100 100 SW 5 7 29.9 1012 8 12.87472 0 0
4:56 am 04:56 Clear with Mist and Fog 48 8.9 48 8.9 100 100 WSW 5 7 29.9 1013 6 9.65604 0.01 0.254
5:56 am 05:56 Clear with Mist and Fog 47 8.3 47 8.3 100 100 SW 3 6 29.91 1013 5 8.0467 0.02 0.508
6:56 am 06:56 Clear with Mist and Fog 46 7.8 46 7.8 100 100 Calm 29.92 1013 2 3.21868 0.01 0.254
7:00 am 07:00 Clear with Mist and Fog 45 7 45 7 100 100 Calm 29.93 1014 1 1.60934 0 0
7:14 am 07:14 Clear with Mist and Fog 45 7 45 7 100 100 Calm 29.94 1014 1.75 2.816345 0 0
7:20 am 07:20 Clear with Mist and Fog 45 7 45 7 100 100 SW 3 6 29.94 1014 0.75 1.207005 0 0
7:25 am 07:25 Clear with Fog 45 7 45 7 100 100 SW 3 6 29.94 1014 0.25 0.402335 0 0
7:56 am 07:56 Sunny with Fog 45 7.2 45 7.2 100 100 SW 5 7 29.94 1014 0.25 0.402335 0.01 0.254
8:07 am 08:07 Sunny with Fog 46 8 46 8 100 100 Calm 29.95 1014 0.5 0.80467 0 0
8:18 am 08:18 Mostly Cloudy with Mist and Fog 46 8 46 8 100 100 SW 3 6 29.95 1014 0.75 1.207005 0 0
8:27 am 08:27 Sunny with Mist and Fog 48 9 48 9 100 100 WSW 3 6 29.95 1014 1 1.60934 0 0
8:31 am 08:31 Sunny with Mist and Fog 48 9 48 9 100 100 Calm 29.95 1014 2.5 4.02335 0 0
8:39 am 08:39 Sunny with Mist and Fog 50 10 50 10 100 100 WSW 5 7 29.95 1014 5 8.0467 0 0
8:56 am 08:56 Sunny 50 10 50 10 100 100 WSW 3 6 29.95 1014 9 14.48406 0 0
9:15 am 09:15 Mostly Sunny 52 11 52 11 100 100 W 6 9 29.95 1014 10 16.0934 0 0
9:56 am 09:56 Mostly Sunny 54 12.2 51 10.6 90 90 Calm 29.95 1014 10 16.0934 0.01 0.254
10:56 am 10:56 Sunny 56 13.3 50 10 81 81 Calm 29.93 1014 10 16.0934 0.01 0.254
11:56 am 11:56 Mostly Sunny 59 15 50 10 72 72 SW 3 6 29.94 1014 10 16.0934 0.03 0.762
12:56 pm 12:56 Partly Cloudy 61 16.1 49 9.4 65 65 W 5 7 29.91 1013 10 16.0934 0.02 0.508
1:56 pm 13:56 Mostly Cloudy 60 15.6 49 9.4 67 67 SSW 7 11 29.91 1013 10 16.0934 0.02 0.508
2:56 pm 14:56 Mostly Cloudy 59 15 49 9.4 69 69 WSW 6 9 29.86 1011 10 16.0934 0.02 0.508
3:56 pm 15:56 Mostly Cloudy 59 15 48 8.9 67 67 WSW 8 13 29.86 1011 10 16.0934 0.01 0.254
4:56 pm 16:56 Mostly Sunny 60 15.6 46 7.8 60 60 WSW 7 11 29.84 1010 10 16.0934 0.01 0.254
5:56 pm 17:56 Partly Cloudy 61 16.1 46 7.8 58 58 SW 3 6 29.83 1010 10 16.0934 0.02 0.508
6:56 pm 18:56 Mostly Sunny 57 13.9 48 8.9 72 72 S 5 7 29.83 1010 10 16.0934 0.01 0.254
7:56 pm 19:56 Mostly Cloudy 55 12.8 49 9.4 80 80 S 3 6 29.83 1010 10 16.0934 0.01 0.254
8:34 pm 20:34 Cloudy with Light Rain 52 11 52 11 100 100 WNW 10 17 29.86 1011 10 16.0934 0.001 0.001
8:56 pm 20:56 Cloudy with Rain 51 10.6 51 10.6 100 100 NNW 5 7 29.86 1011 7 11.26538 0 0
9:56 pm 21:56 Cloudy with Light Rain 51 10.6 51 10.6 100 100 SSW 5 7 29.85 1011 10 16.0934 0 0
10:56 pm 22:56 Cloudy 50 10 50 10 100 100 SW 6 9 29.84 1011 10 16.0934 0.01 0.254
11:56 pm 23:56 Cloudy 50 10 50 10 100 100 SW 8 13 29.83 1010 10 16.0934 0.01 0.254

Powered by AerisWeather